Weather History for Gunnison, CO

Change the Weather History Date:

Wednesday, February 5, 2014

  Actual Average Record
Temperature  
Mean Temperature 5 °F -  
Max Temperature 15 °F 24 °F 44 °F (2001)
Min Temperature -5 °F 0 °F -16 °F (2002)
Degree Days  
Heating Degree Days 60    
Moisture  
Dew Point -7 °F    
Average Humidity 63    
Maximum Humidity 100    
Minimum Humidity 27    
Precipitation  
Precipitation 0.00 in - - ()
Sea Level Pressure  
Sea Level Pressure 30.01 in    
Wind  
Wind Speed 2 mph (NE)    
Max Wind Speed 7 mph    
Max Gust Speed -    
Visibility 10 miles    
Events      
Averages and records for this station are not official NWS values.
T = Trace of Precipitation, MM = Missing Value Source: NWS Daily Summary

Daily Weather History Graph

Daily Weather History Graph

Search for Another Location

Airport:

Trip Planner

Search our weather history database for the weather conditions in past years. The results will help you decide how hot, cold, wet, or windy it might be!

Date:

Astronomy

Feb. 05, 2014 Rise Set
Actual Time 7:09 AM MST 5:34 PM MST
Civil Twilight 6:41 AM MST 6:02 PM MST
Nautical Twilight 6:10 AM MST 6:33 PM MST
Astronomical Twilight 5:39 AM MST 7:04 PM MST
Moon 10:31 AM MST (2/5) No Moon Set
Length of Visible Light 11h 20m
Length of Day
10h 25m
Waxing Crescent, 40% of the Moon is Illuminated
Feb 5
Waxing Crescent
Feb 6
First Quarter
Feb 14
Full
Feb 22
Last Quarter
Mar 1
New

Hourly Weather History & Observations

Time (MST) Temp. Windchill Dew Point Humidity Pressure Visibility Wind Dir Wind Speed Gust Speed Precip Events Conditions
12:15 AM 1.4 °F -8.3 °F 1.4 °F 100% 29.97 in 10.0 mi NNE 4.6 mph - N/A   Mostly Cloudy
12:35 AM -0.4 °F - -11.2 °F 60% 29.97 in 9.0 mi Calm Calm - N/A   Scattered Clouds
12:55 AM -0.4 °F -8.3 °F - N/A% 29.97 in 10.0 mi NE 3.5 mph - N/A   Overcast
1:15 AM -0.4 °F -10.4 °F -11.2 °F 60% 29.98 in 7.0 mi North 4.6 mph - N/A   Overcast
1:35 AM -0.4 °F -8.3 °F -2.2 °F 92% 29.98 in 10.0 mi NNW 3.5 mph - N/A   Mostly Cloudy
1:55 AM -0.4 °F - -5.8 °F 78% 29.99 in 10.0 mi Calm Calm - N/A   Mostly Cloudy
2:15 AM -0.4 °F -8.3 °F -11.2 °F 60% 30.00 in 10.0 mi NNE 3.5 mph - N/A   Clear
2:35 AM -2.2 °F - -2.2 °F 100% 30.00 in 10.0 mi Calm Calm - N/A   Clear
2:55 AM -2.2 °F -10.4 °F -14.8 °F 55% 30.00 in 10.0 mi NNE 3.5 mph - N/A   Clear
3:15 AM -4.0 °F -14.6 °F -14.8 °F 60% 30.00 in 10.0 mi NE 4.6 mph - N/A   Clear
3:35 AM -5.8 °F - -9.4 °F 84% 30.01 in 9.0 mi Calm Calm - N/A   Partly Cloudy
3:55 AM -4.0 °F -14.6 °F -16.6 °F 55% 30.02 in 10.0 mi North 4.6 mph - N/A   Mostly Cloudy
4:15 AM -4.0 °F -16.3 °F - N/A% 30.03 in 10.0 mi North 5.8 mph - N/A   Mostly Cloudy
4:35 AM -5.8 °F -16.7 °F -29.2 °F 32% 30.03 in 10.0 mi North 4.6 mph - N/A   Clear
4:55 AM -4.0 °F - -9.4 °F 78% 30.03 in 10.0 mi Calm Calm - N/A   Clear
5:15 AM -5.8 °F - -20.2 °F 50% 30.03 in 10.0 mi Calm Calm - N/A   Clear
5:35 AM -5.8 °F - -23.8 °F 42% 30.03 in 10.0 mi North - - N/A   Clear
5:55 AM -5.8 °F - -23.8 °F 42% 30.03 in 10.0 mi Calm Calm - N/A   Clear
6:15 AM -4.0 °F - -20.2 °F 46% 30.04 in 10.0 mi Calm Calm - N/A   Clear
6:35 AM -4.0 °F - -20.2 °F 46% 30.04 in 10.0 mi Calm Calm - N/A   Clear
6:55 AM -2.2 °F - -2.2 °F 100% 30.05 in 10.0 mi Calm Calm - N/A   Clear
7:15 AM -2.2 °F -10.4 °F -27.4 °F 29% 30.05 in 10.0 mi East 3.5 mph - N/A   Clear
7:35 AM -2.2 °F - -22.0 °F 39% 30.05 in 10.0 mi Calm Calm - N/A   Clear
8:15 AM -2.2 °F - -25.6 °F 32% 30.06 in 10.0 mi Calm Calm - N/A   Clear
8:35 AM -2.2 °F - -29.2 °F 27% 30.07 in 10.0 mi Calm Calm - N/A   Clear
8:55 AM -2.2 °F - -20.2 °F 42% 30.07 in 10.0 mi Calm Calm - N/A   Clear
9:15 AM -0.4 °F - -14.8 °F 51% 30.08 in 10.0 mi Calm Calm - N/A   Clear
9:35 AM 1.4 °F -6.2 °F - N/A% 30.08 in 10.0 mi SSE 3.5 mph - N/A   Clear
9:55 AM 1.4 °F - -20.2 °F 36% 30.08 in 10.0 mi Calm Calm - N/A   Clear
10:15 AM 1.4 °F - -7.6 °F 66% 30.08 in 10.0 mi Calm Calm - N/A   Clear
10:35 AM 6.8 °F - -5.8 °F 56% 30.08 in 10.0 mi Calm Calm - N/A   Clear
10:55 AM 5.0 °F - -9.4 °F 52% 30.07 in 10.0 mi Calm Calm - N/A   Clear
11:15 AM 6.8 °F -0.1 °F 1.4 °F 79% 30.07 in 10.0 mi East 3.5 mph - N/A   Clear
11:35 AM 8.6 °F - -11.2 °F 40% 30.06 in 10.0 mi Calm Calm - N/A   Clear
11:55 AM 10.4 °F - -4.0 °F 52% 30.05 in 10.0 mi Calm Calm - N/A   Clear
12:15 PM 8.6 °F - -7.6 °F 48% 30.03 in 10.0 mi Calm Calm - N/A   Clear
12:35 PM 10.4 °F 4.0 °F -0.4 °F 62% 30.02 in 10.0 mi SE 3.5 mph - N/A   Clear
12:55 PM 10.4 °F - 1.4 °F 67% 30.01 in 10.0 mi Calm Calm - N/A   Clear
1:15 PM 12.2 °F 6.1 °F -2.2 °F 53% 30.01 in 10.0 mi East 3.5 mph - N/A   Clear
1:35 PM 12.2 °F - -2.2 °F 53% 30.00 in 10.0 mi Calm Calm - N/A   Clear
1:55 PM 14.0 °F - 1.4 °F 57% 29.99 in 10.0 mi Calm Calm - N/A   Clear
2:15 PM 12.2 °F - 1.4 °F 62% 29.99 in 10.0 mi Calm Calm - N/A   Clear
2:35 PM 12.2 °F 4.3 °F 3.2 °F 67% 29.98 in 10.0 mi East 4.6 mph - N/A   Partly Cloudy
2:55 PM 12.2 °F 1.7 °F 1.4 °F 62% 29.98 in 10.0 mi ENE 6.9 mph - N/A   Scattered Clouds
3:15 PM 15.8 °F 7.2 °F 3.2 °F 58% 29.98 in 10.0 mi ENE 5.8 mph - N/A   Partly Cloudy
3:35 PM 15.8 °F 7.2 °F 5.0 °F 62% 29.98 in 10.0 mi NE 5.8 mph - N/A   Mostly Cloudy
3:55 PM 15.8 °F 8.6 °F 3.2 °F 58% 29.98 in 10.0 mi NE 4.6 mph - N/A   Overcast
4:15 PM 14.0 °F 3.9 °F 3.2 °F 62% 29.98 in 10.0 mi East 6.9 mph - N/A   Mostly Cloudy
4:35 PM 12.2 °F 2.9 °F 3.2 °F 67% 29.98 in 10.0 mi East 5.8 mph - N/A   Scattered Clouds
4:55 PM 12.2 °F 6.1 °F 3.2 °F 67% 29.98 in 10.0 mi East 3.5 mph - N/A   Scattered Clouds
5:15 PM 10.4 °F 2.2 °F 1.4 °F 67% 29.97 in 10.0 mi East 4.6 mph - N/A   Overcast
5:35 PM 8.6 °F - -0.4 °F 67% 29.98 in 10.0 mi Calm Calm - N/A   Overcast
5:55 PM 8.6 °F 2.0 °F 1.4 °F 73% 29.97 in 10.0 mi NE 3.5 mph - N/A   Mostly Cloudy
6:15 PM 8.6 °F - 1.4 °F 73% 29.98 in 10.0 mi Calm Calm - N/A   Mostly Cloudy
6:35 PM 8.6 °F 0.1 °F -0.4 °F 67% 29.98 in 10.0 mi NE 4.6 mph - N/A   Partly Cloudy
6:55 PM 8.6 °F - 1.4 °F 73% 29.98 in 10.0 mi Calm Calm - N/A   Clear
7:15 PM 6.8 °F - -0.4 °F 72% 29.98 in 10.0 mi Calm Calm - N/A   Mostly Cloudy
7:35 PM 3.2 °F -6.2 °F -5.8 °F 66% 29.98 in 10.0 mi ENE 4.6 mph - N/A   Overcast
7:55 PM 3.2 °F - -0.4 °F 85% 29.99 in 10.0 mi Calm Calm - N/A   Overcast
8:15 PM 3.2 °F -7.8 °F -4.0 °F 72% 29.99 in 10.0 mi ENE 5.8 mph - N/A   Scattered Clouds
8:35 PM 3.2 °F -4.2 °F -0.4 °F 85% 29.99 in 10.0 mi NNE 3.5 mph - N/A   Clear
8:55 PM 3.2 °F - -5.8 °F 66% 30.00 in 10.0 mi Calm Calm - N/A   Clear
9:15 PM -0.4 °F -10.4 °F -7.6 °F 72% 30.00 in 10.0 mi ENE 4.6 mph - N/A   Clear
9:35 PM 1.4 °F - -0.4 °F 92% 30.00 in 10.0 mi Calm Calm - N/A   Clear
9:55 PM -0.4 °F -12.0 °F -11.2 °F 60% 29.99 in 10.0 mi ENE 5.8 mph - N/A   Clear
10:15 PM 1.4 °F - -0.4 °F 92% 29.99 in 10.0 mi Calm Calm - N/A   Clear
10:35 PM -0.4 °F - -9.4 °F 66% 29.99 in 10.0 mi Calm Calm - N/A   Mostly Cloudy
10:55 PM -0.4 °F -8.3 °F -2.2 °F 92% 29.99 in 10.0 mi ENE 3.5 mph - N/A   Overcast
11:15 PM 1.4 °F -8.3 °F -5.8 °F 72% 29.99 in 10.0 mi NE 4.6 mph - N/A   Mostly Cloudy
11:35 PM 1.4 °F -6.2 °F -2.2 °F 85% 29.98 in 10.0 mi East 3.5 mph - N/A   Overcast
11:55 PM -0.4 °F - -7.6 °F 72% 29.98 in 10.0 mi Calm Calm - N/A   Overcast